Time,TemperatureF,DewpointF,PressureIn,WindDirection,WindDirectionDegrees,WindSpeedMPH,WindSpeedGustMPH,Humidity,HourlyPrecipIn,Conditions,Clouds,dailyrainin,SolarRadiationWatts/m^2,SoftwareType,DateUTC
2014-01-10 00:01:00,41.7,34.4,29.92,ENE,74,2.0,2.0,75,0.00,,,0.00,0,Wunderground v.1.15,2014-01-10 08:01:00,
2014-01-10 00:11:00,41.3,34.3,29.93,ENE,74,0.0,1.0,76,0.00,,,0.00,0,Wunderground v.1.15,2014-01-10 08:11:00,
2014-01-10 00:16:00,42.8,35.4,29.93,SW,219,2.0,5.0,75,0.00,,,0.00,0,Wunderground v.1.15,2014-01-10 08:16:00,
2014-01-10 00:27:00,42.6,34.2,29.93,SSE,161,5.0,12.0,72,0.00,,,0.00,0,Wunderground v.1.15,2014-01-10 08:27:00,
2014-01-10 00:36:00,43.0,34.9,29.93,SSE,161,0.0,3.0,73,0.00,,,0.00,0,Wunderground v.1.15,2014-01-10 08:36:00,
2014-01-10 00:46:00,43.9,35.1,29.93,SSE,161,2.0,3.0,71,0.00,,,0.00,0,Wunderground v.1.15,2014-01-10 08:46:00,
2014-01-10 00:56:00,44.2,35.0,29.93,SSE,162,1.0,4.0,70,0.00,,,0.00,0,Wunderground v.1.15,2014-01-10 08:56:00,
2014-01-10 01:06:00,43.6,34.8,29.93,SSE,162,1.0,3.0,71,0.00,,,0.00,0,Wunderground v.1.15,2014-01-10 09:06:00,
2014-01-10 01:16:00,42.6,34.5,29.94,SSE,162,1.0,2.0,73,0.00,,,0.00,0,Wunderground v.1.15,2014-01-10 09:16:00,
2014-01-10 01:26:00,42.9,34.5,29.94,SSE,161,1.0,1.0,72,0.00,,,0.00,0,Wunderground v.1.15,2014-01-10 09:26:00,
2014-01-10 01:36:00,43.5,34.4,29.94,SE,136,1.0,6.0,70,0.00,,,0.00,0,Wunderground v.1.15,2014-01-10 09:36:00,
2014-01-10 01:46:00,43.5,34.4,29.94,SE,136,1.0,4.0,70,0.00,,,0.00,0,Wunderground v.1.15,2014-01-10 09:46:00,
2014-01-10 01:56:00,42.4,34.0,29.94,ESE,119,3.0,5.0,72,0.00,,,0.00,0,Wunderground v.1.15,2014-01-10 09:56:00,
2014-01-10 02:06:00,43.1,34.0,29.94,ESE,118,1.0,2.0,70,0.00,,,0.00,0,Wunderground v.1.15,2014-01-10 10:06:00,
2014-01-10 02:16:00,44.1,34.2,29.95,ESE,117,1.0,2.0,68,0.00,,,0.00,0,Wunderground v.1.15,2014-01-10 10:16:00,
2014-01-10 02:26:00,45.0,34.3,29.95,ESE,115,1.0,1.0,66,0.00,,,0.00,0,Wunderground v.1.15,2014-01-10 10:26:00,
2014-01-10 02:36:00,46.7,34.8,29.95,ENE,75,2.0,2.0,63,0.00,,,0.00,0,Wunderground v.1.15,2014-01-10 10:36:00,
2014-01-10 02:46:00,46.7,34.4,29.95,ENE,76,1.0,4.0,62,0.00,,,0.00,0,Wunderground v.1.15,2014-01-10 10:46:00,
2014-01-10 02:56:00,47.9,34.7,29.96,SSW,200,4.0,4.0,60,0.00,,,0.00,0,Wunderground v.1.15,2014-01-10 10:56:00,
2014-01-10 03:06:00,47.3,34.5,29.96,SSW,200,0.0,3.0,61,0.00,,,0.00,0,Wunderground v.1.15,2014-01-10 11:06:00,
2014-01-10 03:16:00,46.2,33.9,29.97,SSW,200,0.0,0.0,62,0.00,,,0.00,0,Wunderground v.1.15,2014-01-10 11:16:00,
2014-01-10 03:26:00,45.2,33.7,29.97,SSW,200,1.0,1.0,64,0.00,,,0.00,0,Wunderground v.1.15,2014-01-10 11:26:00,
2014-01-10 03:36:00,46.0,34.1,29.97,SSW,199,2.0,2.0,63,0.00,,,0.00,0,Wunderground v.1.15,2014-01-10 11:36:00,
2014-01-10 03:46:00,46.2,34.3,29.98,SSW,200,2.0,6.0,63,0.00,,,0.00,0,Wunderground v.1.15,2014-01-10 11:46:00,
2014-01-10 03:56:00,46.5,34.2,29.98,SSW,200,4.0,6.0,62,0.00,,,0.00,0,Wunderground v.1.15,2014-01-10 11:56:00,
2014-01-10 04:06:00,46.9,33.7,29.98,SSE,160,3.0,4.0,60,0.00,,,0.00,0,Wunderground v.1.15,2014-01-10 12:06:00,
2014-01-10 04:16:00,47.3,33.7,29.99,SSE,165,3.0,3.0,59,0.00,,,0.00,0,Wunderground v.1.15,2014-01-10 12:16:00,
2014-01-10 04:26:00,47.0,33.4,29.98,SSE,165,1.0,4.0,59,0.00,,,0.00,0,Wunderground v.1.15,2014-01-10 12:26:00,
2014-01-10 04:36:00,45.4,32.7,29.98,SSE,165,1.0,1.0,61,0.00,,,0.00,0,Wunderground v.1.15,2014-01-10 12:36:00,
2014-01-10 04:46:00,43.8,32.8,29.97,SSE,165,2.0,2.0,65,0.00,,,0.00,0,Wunderground v.1.15,2014-01-10 12:46:00,
2014-01-10 04:56:00,42.6,32.4,29.97,SSE,161,1.0,6.0,67,0.00,,,0.00,0,Wunderground v.1.15,2014-01-10 12:56:00,
2014-01-10 05:06:00,42.1,31.9,29.97,SSE,162,1.0,2.0,67,0.00,,,0.00,0,Wunderground v.1.15,2014-01-10 13:06:00,
2014-01-10 05:16:00,42.9,32.3,29.98,SSE,162,2.0,4.0,66,0.00,,,0.00,0,Wunderground v.1.15,2014-01-10 13:16:00,
2014-01-10 05:26:00,42.4,32.2,30.00,SSE,162,1.0,2.0,67,0.00,,,0.00,0,Wunderground v.1.15,2014-01-10 13:26:00,
2014-01-10 05:36:00,42.8,32.2,30.00,SSW,194,2.0,4.0,66,0.00,,,0.00,0,Wunderground v.1.15,2014-01-10 13:36:00,
2014-01-10 05:46:00,40.7,32.0,30.00,NNW,344,3.0,3.0,71,0.00,,,0.00,0,Wunderground v.1.15,2014-01-10 13:46:00,
2014-01-10 05:56:00,42.0,31.5,30.00,SW,234,3.0,5.0,66,0.00,,,0.00,0,Wunderground v.1.15,2014-01-10 13:56:00,
2014-01-10 06:06:00,48.2,32.3,30.00,SW,227,7.0,8.0,54,0.00,,,0.00,0,Wunderground v.1.15,2014-01-10 14:06:00,
2014-01-10 06:16:00,49.3,31.4,30.01,South,182,12.0,12.0,50,0.00,,,0.00,0,Wunderground v.1.15,2014-01-10 14:16:00,
2014-01-10 06:26:00,49.4,31.5,30.00,SSE,161,7.0,9.0,50,0.00,,,0.00,0,Wunderground v.1.15,2014-01-10 14:26:00,
2014-01-10 06:36:00,48.1,31.8,30.00,SW,215,4.0,6.0,53,0.00,,,0.00,0,Wunderground v.1.15,2014-01-10 14:36:00,
2014-01-10 06:46:00,46.9,31.1,30.01,SW,214,2.0,7.0,54,0.00,,,0.00,0,Wunderground v.1.15,2014-01-10 14:46:00,
2014-01-10 06:56:00,48.0,31.2,30.00,SSW,196,5.0,7.0,52,0.00,,,0.00,0,Wunderground v.1.15,2014-01-10 14:56:00,
2014-01-10 07:06:00,48.3,31.5,30.00,SW,223,5.0,8.0,52,0.00,,,0.00,0,Wunderground v.1.15,2014-01-10 15:06:00,
2014-01-10 07:16:00,48.4,32.0,30.00,SW,222,5.0,7.0,53,0.00,,,0.00,0,Wunderground v.1.15,2014-01-10 15:16:00,
2014-01-10 07:26:00,47.5,32.6,30.01,WSW,238,1.0,4.0,56,0.00,,,0.00,0,Wunderground v.1.15,2014-01-10 15:26:00,
2014-01-10 07:36:00,46.9,32.9,30.01,WSW,239,2.0,3.0,58,0.00,,,0.00,0,Wunderground v.1.15,2014-01-10 15:36:00,
2014-01-10 07:46:00,46.3,32.3,30.02,South,182,4.0,4.0,58,0.00,,,0.00,0,Wunderground v.1.15,2014-01-10 15:46:00,
2014-01-10 07:56:00,49.0,33.1,30.02,SW,227,7.0,13.0,54,0.00,,,0.00,7,Wunderground v.1.15,2014-01-10 15:56:00,
2014-01-10 08:06:00,49.7,32.8,30.02,SSW,206,9.0,12.0,52,0.00,,,0.00,12,Wunderground v.1.15,2014-01-10 16:06:00,
2014-01-10 08:16:00,51.5,32.4,30.00,South,189,15.0,18.0,48,0.00,,,0.00,21,Wunderground v.1.15,2014-01-10 16:16:00,
2014-01-10 08:26:00,50.0,33.1,30.03,South,184,4.0,11.0,52,0.00,,,0.00,26,Wunderground v.1.15,2014-01-10 16:26:00,
2014-01-10 08:36:00,48.6,33.1,30.03,NNW,344,2.0,2.0,55,0.00,,,0.00,23,Wunderground v.1.15,2014-01-10 16:36:00,
2014-01-10 08:46:00,47.8,32.9,30.03,NNW,342,2.0,6.0,56,0.00,,,0.00,26,Wunderground v.1.15,2014-01-10 16:46:00,
2014-01-10 08:56:00,47.4,32.9,30.03,NNW,336,3.0,5.0,57,0.00,,,0.00,26,Wunderground v.1.15,2014-01-10 16:56:00,
2014-01-10 09:06:00,47.1,33.1,30.03,NNW,337,1.0,5.0,58,0.00,,,0.00,40,Wunderground v.1.15,2014-01-10 17:06:00,
2014-01-10 09:16:00,46.9,33.3,30.04,NNW,338,1.0,2.0,59,0.00,,,0.00,37,Wunderground v.1.15,2014-01-10 17:16:00,
2014-01-10 09:26:00,46.3,33.6,30.06,NNW,338,0.0,1.0,61,0.00,,,0.00,56,Wunderground v.1.15,2014-01-10 17:26:00,
2014-01-10 09:36:00,46.3,33.6,30.06,NNW,338,0.0,1.0,61,0.00,,,0.00,70,Wunderground v.1.15,2014-01-10 17:36:00,
2014-01-10 09:46:00,47.2,34.8,30.06,North,360,1.0,2.0,62,0.00,,,0.00,69,Wunderground v.1.15,2014-01-10 17:46:00,
2014-01-10 09:56:00,48.3,35.5,30.06,NW,322,4.0,6.0,61,0.00,,,0.00,105,Wunderground v.1.15,2014-01-10 17:56:00,
2014-01-10 10:06:00,48.6,35.7,30.06,NNW,329,5.0,8.0,61,0.00,,,0.00,81,Wunderground v.1.15,2014-01-10 18:06:00,
2014-01-10 10:16:00,49.0,35.7,30.06,North,355,5.0,7.0,60,0.00,,,0.00,100,Wunderground v.1.15,2014-01-10 18:16:00,
2014-01-10 10:26:00,49.0,35.3,30.07,NNW,346,5.0,9.0,59,0.00,,,0.00,127,Wunderground v.1.15,2014-01-10 18:26:00,
2014-01-10 10:36:00,49.0,35.7,30.07,NNW,337,6.0,9.0,60,0.00,,,0.00,88,Wunderground v.1.15,2014-01-10 18:36:00,
2014-01-10 10:46:00,49.0,35.7,30.07,NNW,336,6.0,11.0,60,0.00,,,0.00,91,Wunderground v.1.15,2014-01-10 18:46:00,
2014-01-10 10:56:00,48.8,36.4,30.07,NW,314,3.0,5.0,62,0.00,,,0.00,79,Wunderground v.1.15,2014-01-10 18:56:00,
2014-01-10 11:06:00,49.2,36.7,30.07,NNW,336,0.0,2.0,62,0.00,,,0.00,169,Wunderground v.1.15,2014-01-10 19:06:00,
2014-01-10 11:16:00,49.7,36.8,30.07,NNW,340,1.0,1.0,61,0.00,,,0.00,134,Wunderground v.1.15,2014-01-10 19:16:00,
2014-01-10 11:26:00,49.8,36.9,30.07,NNW,340,1.0,4.0,61,0.00,,,0.00,125,Wunderground v.1.15,2014-01-10 19:26:00,
2014-01-10 11:36:00,50.0,37.1,30.07,NNW,341,2.0,2.0,61,0.00,,,0.00,195,Wunderground v.1.15,2014-01-10 19:36:00,
2014-01-10 11:46:00,50.4,37.0,30.06,NNW,341,1.0,1.0,60,0.00,,,0.00,148,Wunderground v.1.15,2014-01-10 19:46:00,
2014-01-10 11:56:00,50.9,37.1,30.06,NNW,341,0.0,1.0,59,0.00,,,0.00,156,Wunderground v.1.15,2014-01-10 19:56:00,
2014-01-10 12:06:00,50.6,36.4,30.06,NNW,327,1.0,1.0,58,0.00,,,0.00,83,Wunderground v.1.15,2014-01-10 20:06:00,
2014-01-10 12:16:00,50.2,36.4,30.07,NNW,327,1.0,2.0,59,0.00,,,0.00,93,Wunderground v.1.15,2014-01-10 20:16:00,
2014-01-10 12:26:00,50.6,37.2,30.06,NNW,327,0.0,0.0,60,0.00,,,0.00,135,Wunderground v.1.15,2014-01-10 20:26:00,
2014-01-10 12:36:00,51.4,37.5,30.06,NNW,327,0.0,0.0,59,0.00,,,0.00,146,Wunderground v.1.15,2014-01-10 20:36:00,
2014-01-10 12:46:00,51.4,37.1,30.06,NNW,327,1.0,2.0,58,0.00,,,0.00,153,Wunderground v.1.15,2014-01-10 20:46:00,
2014-01-10 12:56:00,50.9,37.1,30.06,NNW,327,1.0,4.0,59,0.00,,,0.00,95,Wunderground v.1.15,2014-01-10 20:56:00,
2014-01-10 13:06:00,50.4,36.2,30.06,NNW,327,1.0,4.0,58,0.00,,,0.00,83,Wunderground v.1.15,2014-01-10 21:06:00,
2014-01-10 13:16:00,50.5,36.3,30.05,NNW,327,0.0,1.0,58,0.00,,,0.00,105,Wunderground v.1.15,2014-01-10 21:16:00,
2014-01-10 13:27:00,50.7,36.9,30.04,NNW,327,0.0,0.0,59,0.00,,,0.00,91,Wunderground v.1.15,2014-01-10 21:27:00,
2014-01-10 13:36:00,50.8,37.4,30.04,NNW,327,0.0,0.0,60,0.00,,,0.00,86,Wunderground v.1.15,2014-01-10 21:36:00,
2014-01-10 13:46:00,50.6,37.6,30.04,NNW,327,0.0,0.0,61,0.00,,,0.00,74,Wunderground v.1.15,2014-01-10 21:46:00,
2014-01-10 13:56:00,50.3,36.9,30.04,NNW,327,0.0,0.0,60,0.00,,,0.00,70,Wunderground v.1.15,2014-01-10 21:56:00,
2014-01-10 14:06:00,50.0,37.1,30.04,NNW,327,0.0,0.0,61,0.00,,,0.00,35,Wunderground v.1.15,2014-01-10 22:06:00,
2014-01-10 14:21:00,49.6,37.1,30.04,NNW,327,0.0,2.0,62,0.00,,,0.00,51,Wunderground v.1.15,2014-01-10 22:21:00,
2014-01-10 14:31:00,49.2,37.5,30.04,NW,325,1.0,1.0,64,0.00,,,0.00,44,Wunderground v.1.15,2014-01-10 22:31:00,
2014-01-10 14:41:00,49.2,37.1,30.04,NW,325,0.0,0.0,63,0.00,,,0.00,47,Wunderground v.1.15,2014-01-10 22:41:00,
2014-01-10 14:51:00,49.4,37.7,30.04,NW,325,0.0,0.0,64,0.00,,,0.00,60,Wunderground v.1.15,2014-01-10 22:51:00,
2014-01-10 14:56:00,49.4,37.7,30.03,NW,325,0.0,0.0,64,0.00,,,0.00,60,Wunderground v.1.15,2014-01-10 22:56:00,
2014-01-10 15:06:00,49.3,38.0,30.03,NW,325,0.0,0.0,65,0.00,,,0.00,46,Wunderground v.1.15,2014-01-10 23:06:00,
2014-01-10 15:16:00,49.1,37.4,30.02,NW,325,0.0,0.0,64,0.00,,,0.00,51,Wunderground v.1.15,2014-01-10 23:16:00,
2014-01-10 15:26:00,49.2,37.1,30.01,NW,325,1.0,3.0,63,0.00,,,0.00,51,Wunderground v.1.15,2014-01-10 23:26:00,
2014-01-10 15:36:00,49.3,36.0,30.01,NW,325,0.0,1.0,60,0.00,,,0.00,30,Wunderground v.1.15,2014-01-10 23:36:00,
2014-01-10 15:46:00,49.4,35.2,30.01,NW,325,1.0,2.0,58,0.00,,,0.00,30,Wunderground v.1.15,2014-01-10 23:46:00,
2014-01-10 15:56:00,50.1,33.1,30.01,ESE,104,3.0,5.0,52,0.00,,,0.00,11,Wunderground v.1.15,2014-01-10 23:56:00,
2014-01-10 16:06:00,50.5,32.0,30.01,East,101,4.0,4.0,49,0.00,,,0.00,5,Wunderground v.1.15,2014-01-11 00:06:00,
2014-01-10 16:16:00,50.6,31.6,30.00,East,86,2.0,4.0,48,0.00,,,0.00,0,Wunderground v.1.15,2014-01-11 00:16:00,
2014-01-10 16:26:00,50.5,31.0,30.00,ESE,105,3.0,3.0,47,0.00,,,0.00,0,Wunderground v.1.15,2014-01-11 00:26:00,
2014-01-10 16:36:00,50.4,30.4,30.00,East,101,2.0,2.0,46,0.00,,,0.00,0,Wunderground v.1.15,2014-01-11 00:36:00,
2014-01-10 16:46:00,51.0,26.9,29.99,East,83,4.0,6.0,39,0.00,,,0.00,0,Wunderground v.1.15,2014-01-11 00:46:00,
2014-01-10 16:56:00,51.9,25.8,29.98,SE,144,6.0,7.0,36,0.00,,,0.00,0,Wunderground v.1.15,2014-01-11 00:56:00,
2014-01-10 17:06:00,52.1,25.9,29.98,ESE,110,5.0,7.0,36,0.00,,,0.00,0,Wunderground v.1.15,2014-01-11 01:06:00,
2014-01-10 17:16:00,51.9,27.1,29.98,ESE,121,3.0,4.0,38,0.00,,,0.00,0,Wunderground v.1.15,2014-01-11 01:16:00,
2014-01-10 17:26:00,51.6,28.0,29.97,SE,128,3.0,7.0,40,0.00,,,0.00,0,Wunderground v.1.15,2014-01-11 01:26:00,
2014-01-10 17:36:00,51.4,29.6,29.97,SE,132,4.0,7.0,43,0.00,,,0.00,0,Wunderground v.1.15,2014-01-11 01:36:00,
2014-01-10 17:46:00,51.2,31.1,29.97,ESE,121,3.0,4.0,46,0.00,,,0.00,0,Wunderground v.1.15,2014-01-11 01:46:00,
2014-01-10 17:56:00,51.2,30.6,29.96,ESE,116,4.0,4.0,45,0.00,,,0.00,0,Wunderground v.1.15,2014-01-11 01:56:00,
2014-01-10 18:06:00,51.2,31.1,29.96,East,98,3.0,7.0,46,0.00,,,0.00,0,Wunderground v.1.15,2014-01-11 02:06:00,
2014-01-10 18:16:00,51.4,30.7,29.96,SE,124,5.0,5.0,45,0.00,,,0.00,0,Wunderground v.1.15,2014-01-11 02:16:00,
2014-01-10 18:26:00,51.2,31.1,29.96,ESE,111,4.0,5.0,46,0.00,,,0.00,0,Wunderground v.1.15,2014-01-11 02:26:00,
2014-01-10 18:36:00,51.0,30.4,29.96,East,84,4.0,8.0,45,0.00,,,0.00,0,Wunderground v.1.15,2014-01-11 02:36:00,
2014-01-10 18:46:00,51.0,30.4,29.96,East,88,5.0,5.0,45,0.00,,,0.00,0,Wunderground v.1.15,2014-01-11 02:46:00,
2014-01-10 18:56:00,50.6,31.1,29.95,East,95,3.0,5.0,47,0.00,,,0.00,0,Wunderground v.1.15,2014-01-11 02:56:00,
2014-01-10 19:07:00,50.4,31.4,29.95,East,94,3.0,7.0,48,0.00,,,0.00,0,Wunderground v.1.15,2014-01-11 03:07:00,
2014-01-10 19:16:00,50.4,31.4,29.95,East,90,2.0,5.0,48,0.00,,,0.00,0,Wunderground v.1.15,2014-01-11 03:16:00,
2014-01-10 19:26:00,50.8,31.3,29.95,NE,54,3.0,7.0,47,0.00,,,0.00,0,Wunderground v.1.15,2014-01-11 03:26:00,
2014-01-10 19:41:00,50.7,31.2,29.95,NE,53,1.0,4.0,47,0.00,,,0.00,0,Wunderground v.1.15,2014-01-11 03:41:00,
2014-01-10 19:46:00,50.6,31.6,29.95,NE,51,2.0,4.0,48,0.00,,,0.00,0,Wunderground v.1.15,2014-01-11 03:46:00,
2014-01-10 19:57:00,50.0,31.6,29.94,NE,53,0.0,2.0,49,0.00,,,0.00,0,Wunderground v.1.15,2014-01-11 03:57:00,
2014-01-10 20:06:00,50.0,31.1,29.94,NE,46,2.0,6.0,48,0.00,,,0.00,0,Wunderground v.1.15,2014-01-11 04:06:00,
2014-01-10 20:16:00,50.4,31.4,29.94,NE,34,2.0,7.0,48,0.00,,,0.00,0,Wunderground v.1.15,2014-01-11 04:16:00,
2014-01-10 20:26:00,50.6,31.6,29.93,North,360,3.0,6.0,48,0.00,,,0.00,0,Wunderground v.1.15,2014-01-11 04:26:00,
2014-01-10 20:36:00,50.2,32.3,29.93,ENE,78,2.0,3.0,50,0.00,,,0.00,0,Wunderground v.1.15,2014-01-11 04:36:00,
2014-01-10 20:46:00,49.9,32.0,29.92,NE,51,2.0,3.0,50,0.00,,,0.00,0,Wunderground v.1.15,2014-01-11 04:46:00,
2014-01-10 20:56:00,49.9,32.0,29.91,NNE,25,3.0,3.0,50,0.00,,,0.00,0,Wunderground v.1.15,2014-01-11 04:56:00,
2014-01-10 21:01:00,50.0,32.1,29.91,NE,44,4.0,4.0,50,0.00,,,0.00,0,Wunderground v.1.15,2014-01-11 05:01:00,
2014-01-10 21:06:00,49.8,32.4,29.91,East,80,3.0,4.0,51,0.00,,,0.00,0,Wunderground v.1.15,2014-01-11 05:06:00,
2014-01-10 21:16:00,49.0,32.6,29.91,ENE,74,3.0,4.0,53,0.00,,,0.00,0,Wunderground v.1.15,2014-01-11 05:16:00,
2014-01-10 21:26:00,49.2,32.8,29.90,East,83,3.0,4.0,53,0.00,,,0.00,0,Wunderground v.1.15,2014-01-11 05:26:00,
2014-01-10 21:31:00,49.4,33.0,29.90,East,96,4.0,5.0,53,0.00,,,0.00,0,Wunderground v.1.15,2014-01-11 05:31:00,
2014-01-10 21:36:00,49.6,33.2,29.90,East,83,5.0,5.0,53,0.00,,,0.00,0,Wunderground v.1.15,2014-01-11 05:36:00,
2014-01-10 21:41:00,49.7,33.2,29.91,ESE,111,4.0,4.0,53,0.00,,,0.00,0,Wunderground v.1.15,2014-01-11 05:41:00,
2014-01-10 21:46:00,49.9,33.4,29.91,East,94,3.0,4.0,53,0.00,,,0.00,0,Wunderground v.1.15,2014-01-11 05:46:00,
2014-01-10 21:56:00,50.0,33.1,29.90,East,95,1.0,2.0,52,0.00,,,0.00,0,Wunderground v.1.15,2014-01-11 05:56:00,
2014-01-10 22:01:00,50.1,33.1,29.90,ENE,61,1.0,1.0,52,0.00,,,0.00,0,Wunderground v.1.15,2014-01-11 06:01:00,
2014-01-10 22:06:00,50.4,32.9,29.90,ENE,61,1.0,1.0,51,0.00,,,0.00,0,Wunderground v.1.15,2014-01-11 06:06:00,
2014-01-10 22:16:00,50.3,32.8,29.89,North,350,2.0,6.0,51,0.00,,,0.00,0,Wunderground v.1.15,2014-01-11 06:16:00,
2014-01-10 22:26:00,50.1,33.1,29.87,NNW,338,2.0,6.0,52,0.00,,,0.00,0,Wunderground v.1.15,2014-01-11 06:26:00,
2014-01-10 22:36:00,49.9,33.0,29.87,NNW,337,1.0,3.0,52,0.00,,,0.00,0,Wunderground v.1.15,2014-01-11 06:36:00,
2014-01-10 22:46:00,49.7,33.2,29.86,NNW,337,1.0,1.0,53,0.00,,,0.00,0,Wunderground v.1.15,2014-01-11 06:46:00,
2014-01-10 22:56:00,50.0,33.5,29.86,ENE,64,2.0,2.0,53,0.00,,,0.00,0,Wunderground v.1.15,2014-01-11 06:56:00,
2014-01-10 23:06:00,50.4,33.9,29.86,NNE,24,1.0,4.0,53,0.00,,,0.00,0,Wunderground v.1.15,2014-01-11 07:06:00,
2014-01-10 23:16:00,50.6,34.1,29.85,NNE,24,1.0,1.0,53,0.00,,,0.00,0,Wunderground v.1.15,2014-01-11 07:16:00,
2014-01-10 23:26:00,50.6,34.6,29.84,NNE,24,1.0,1.0,54,0.00,,,0.00,0,Wunderground v.1.15,2014-01-11 07:26:00,
2014-01-10 23:36:00,50.6,35.0,29.84,NE,40,2.0,5.0,55,0.00,,,0.00,0,Wunderground v.1.15,2014-01-11 07:36:00,
2014-01-10 23:46:00,50.6,35.5,29.83,ENE,75,1.0,2.0,56,0.00,,,0.00,0,Wunderground v.1.15,2014-01-11 07:46:00,